Flag for Switzerland Weather past 2 weeks in Altdorf, Uri, Switzerland

Now
63 °F

Mild.


Feels Like: 63 °F
Forecast: 47 / 73 °F
Wind: 6 mph from Northwest

Location: Altdorf

Current Time: May 30, 2015 at 11:16:03 PM

Latest Report: May 30, 2015 at 10:00 PM


Visibility: N/A

Pressure: 30.04 "Hg

Humidity: 61%

Dew point: 49 °F

Location of AltdorfLocation

Historic Weather in Altdorf — Graph

°F

Altdorf temperature yesterday

Maximum temperature yesterday: 73 °F (at 6:00 PM)
Minimum temperature yesterday: 50 °F (at 3:00 AM)
Average temperature yesterday: 62 °F

Past Weeks' High & Low Weather Summary

 TemperatureHumidityPressure
High73 °F (May 18, 6:00 PM)94% (May 25, 6:40 AM)30.34 "Hg (May 25, 6:40 AM)
Low43 °F (May 21, 6:00 AM)38% (May 28, 7:00 PM)29.72 "Hg (May 18, 6:00 PM)
Average55 °F76%30.07 "Hg
* Reported May 15 10:00 PM — May 30 10:00 PM, Altdorf, Weather by CustomWeather, © 2015

Note: Actual official high and low records may vary slightly from our data, if they occured in-between our weather recording intervals... More about our weather records

Advertising

Altdorf weather history for previous 24 hours

 ConditionsComfort  
Time TempWeatherWind HumidityBarometerVisibility
10:00 PM
Sat, May 30
63 °FMild.6 mph61%30.04 "HgN/A
9:00 PM63 °FMild.6 mph63%30.02 "HgN/A
8:00 PM64 °FOvercast.6 mph62%30.00 "Hg12 mi
7:00 PM65 °FMild.8 mph59%29.99 "HgN/A
6:00 PM66 °FMild.6 mph56%29.98 "HgN/A
5:00 PM67 °FOvercast.6 mph54%29.97 "Hg11 mi
4:00 PM66 °FMild.7 mph53%29.97 "HgN/A
3:00 PM67 °FMild.12 mph55%29.97 "HgN/A
2:00 PM68 °FPartly sunny.12 mph55%29.97 "Hg12 mi
1:00 PM65 °FMild.12 mph62%29.98 "HgN/A
12:00 PM64 °FMild.13 mph60%29.99 "HgN/A
11:00 AM64 °FPartly sunny.8 mph67%29.99 "Hg12 mi
10:00 AM61 °FCool.5 mph78%30.00 "HgN/A
9:00 AM59 °FCool.2 mph88%30.00 "HgN/A
8:00 AM56 °FOvercast.1 mph91%30.01 "Hg9 mi
7:00 AM56 °FCool.1 mph93%30.00 "HgN/A
6:00 AM56 °FCool.1 mph92%30.00 "HgN/A
4:00 AM55 °FCool.3 mph94%29.99 "HgN/A
3:00 AM56 °FCool.3 mph92%29.98 "HgN/A
2:00 AM56 °FLight rain. Overcast.5 mph88%29.96 "Hg9 mi
1:00 AM57 °FCool.2 mph81%29.91 "HgN/A
12:00 AM59 °FCool.2 mph74%29.91 "HgN/A
11:00 PM
Fri, May 29
61 °FOvercast.7 mph69%29.90 "Hg9 mi
Weather by CustomWeather, © 2015

See weather overviewHow to use our weather pages